Tracking 19193 objects as of 23-Jun-2018
HD Live streaming from Space Station
objects crossing your sky now

FENGYUN 1C DEB

Track FENGYUN 1C DEB now!
10-day predictions


NORAD ID: 31028
Int'l Code: 1999-025BDW
Perigee: 822.3 km
Apogee: 1,068.8 km
Inclination: 98.7 °
Period: 103.8 minutes
Semi major axis: 7316 km
RCS: 0.0107 m2 (small)
Launch date: May 10, 1999
Source: People's Republic of China (PRC)
Launch site: Taiyaun Space Center, China (TSC)

Note: This is SATELLITE DEBRIS
aabbcc
Your satellite tracking list
Your tracking list is empty




NASA's NSSDC Master Catalog

Two Line Element Set (TLE):
1 31028U 99025BDW 18173.48116469 +.00000085 +00000-0 +95451-4 0  9999
2 31028 098.7136 269.6265 0168442 206.9319 152.3023 13.87214529241354
Source of the keplerian elements: AFSPC